Regional Weather Roundup
Issued by NWS Newport/Morehead, NC

Current Version | Previous Version | Text Only | Print | Product List | Glossary Off
Versions: 1 2 3 4 5 6 7 8 9 10 11 12 13 14 15 16 17 18 19 20 21 22 23 24 25 26 27 28 29 30 31 32 33 34 35 36 37 38 39 40 41 42 43 44 45 46 47 48 49 50
000 ASUS42 KMHX 262310 RWRMHX WEATHER ROUNDUP FOR EASTERN NORTH CAROLINA NATIONAL WEATHER SERVICE NEWPORT/MOREHEAD CITY NC 600 PM EST MON JAN 26 2015 NOTE: "FAIR" INDICATES FEW OR NO CLOUDS BELOW 12,000 FEET WITH NO SIGNIFICANT WEATHER AND/OR OBSTRUCTIONS TO VISIBILITY NCZ015>017-031-032-045>047-102-103-270000- NORTH COAST CITY SKY/WX TMP DP RH WIND PRES REMARKS EDENTON CLOUDY 48 42 77 N5 29.57R ELIZABETH CITY CLOUDY 46 41 81 NW13 29.56R KITTY HAWK CLOUDY 46 45 95 NW7 29.52R MANTEO CLOUDY 46 43 87 NW8 29.54R $$ NCZ045>047-081-094-103-104-270000- CENTRAL COAST CITY SKY/WX TMP DP RH WIND PRES REMARKS FRISCO PTCLDY 48 46 93 NW10 29.51S SWANQUARTER NOT AVBL $$ NCZ095-097-098-100-101-270000- SOUTHERN COAST CITY SKY/WX TMP DP RH WIND PRES REMARKS BEAUFORT CLOUDY 50 42 74 N14 29.57R CEDAR ISLAND NOT AVBL JACKSONVILLE CLOUDY 51 42 71 NW13 29.57R PINEY ISLAND N/A N/A N/A N/A MISG 29.55R WILMINGTON CLOUDY 51 41 68 NW14 29.59R $$ NCZ011>013-027>030-043-044-078>080-089-090>093-098-270000- COASTAL PLAIN CITY SKY/WX TMP DP RH WIND PRES REMARKS AHOSKIE CLOUDY 48 38 68 N8 29.60R CLINTON LGT RAIN 47 45 94 NW3 29.62R ELIZABETHTOWN LGT RAIN 49 43 81 NW8 29.62R GOLDSBORO CLOUDY 49 49 98 NW8 29.59R GREENVILLE CLOUDY 50 43 76 N8 29.62R HAVELOCK CLOUDY 51 41 68 NW8 29.58R KENANSVILLE CLOUDY 47 43 84 W5 29.61R KINSTON CLOUDY 52 43 71 NW7 29.59R NEW BERN RAIN 51 41 68 N3 29.58R RICHLANDS CLOUDY 50 41 71 W6 29.59R ROCKY MOUNT CLOUDY 48 40 73 NW9 29.61R WASHINGTON CLOUDY 48 43 80 NW3 29.57S WHITEVILLE DRIZZLE 50 45 82 W3 29.62R $$ AMZ130-135-150-152-154-156-158-170-250-252-270-ANZ085-086-088-633-658-670-270000- MARINE OBSERVATIONS STATION/POSITION TIME TEMP WIND PRES WAVE SWELL AIR SEA DIR/SP/G HT/PER HT/PER (UTC) (F) (DEG/KT/KT) (MB) (FT/S) (FT/S) CHESAPEAKE LIGHT 2200 43 330/ 26/ 29 1000.3 64 E VA BEACH 2300 51 52 330/ 19/ 25 997.0 4/ 6 2/ 7 DUCK 2300 45 44 330/ 19/ 22 998.9 2 E DUCK 2300 44 N/A 3/ 4 2/11 10 NE DUCK 2300 45 N/A 4/ 4 2/11 OREGON INLET 2300 47 46 320/ 16/ 20 999.4 13E OREGON INLT 2300 46 N/A 3/ 8 2/11 HATTERAS CG 2300 49 54 300/ 15/ 17 999.7 DIAMOND BUOY 2300 55 70 310/ 16/ 19 998.7 3/ 7 3/ 7 17 S OCRACOKE NOT AVBL CAPE LOOKOUT 2200 51 270/ 7/ 8 1000.1 BEAUFORT LAB 2300 50 50 350/ 7/ 10 999.8 27 SE WRIGHTSVLE NOT AVBL 5 SE WRIGHTSVLE 2200 54 52 330/ 10/ 12 1000.9 225 S CAPE HAT 2237 65 72 280/ 25/ 33 1000.6 10/ 9 5/ 9 41 SE CHARLESTON 2300 57 68 270/ 25/ 33 1003.6 7/ 7 2/12 $$

USA.gov is the U.S. government's official web portal to all federal, state and local government web resources and services.